Flag for U.S.A. Weather past 2 weeks in Inverness, Florida, U.S.A.

Now
84 °F

Scattered clouds.


Feels Like: 90 °F
Forecast: 77 / 91 °F
Wind: 7 mph from Northwest

Location: Ocala Municipal

Current Time: Jul 28, 2014 at 10:33:02 AM

Latest Report: Jul 28, 2014 at 9:50 AM


Visibility: 10 mi

Pressure: 30.05 "Hg

Humidity: 66%

Dew point: 72 °F

Location of InvernessLocation

Historic Weather in Inverness — Graph

°F

Inverness temperature yesterday

Maximum temperature yesterday: 91 °F (at 3:50 PM)
Minimum temperature yesterday: 73 °F (at 5:15 AM)
Average temperature yesterday: 80 °F

Past Weeks' High & Low Weather Summary

 TemperatureHumidityPressure
High91 °F (Jul 19, 2:50 PM)100% (Jul 17, 6:50 AM)30.11 "Hg (Jul 17, 6:50 AM)
Low70 °F (Jul 18, 5:15 AM)43% (Jul 18, 1:50 PM)29.90 "Hg (Jul 16, 4:35 AM)
Average77 °F71%30.04 "Hg
* Reported Jul 13 3:50 PM — Jul 28 8:50 AM, Inverness, Weather by CustomWeather, © 2014

Note: Actual official high and low records may vary slightly from our data, if they occured in-between our weather recording intervals... More about our weather records

Advertising

Inverness weather history for previous 24 hours

 ConditionsComfort  
Time TempWeatherWind HumidityBarometerVisibility
8:50 AM
Jul 28
81 °FPassing clouds.6 mph70%30.05 "Hg10 mi
7:50 AM77 °FPassing clouds.No wind74%30.05 "Hg10 mi
6:50 AM73 °FClear.5 mph78%30.05 "Hg10 mi
6:35 AM73 °FClear.3 mph78%30.05 "Hg10 mi
6:15 AM73 °FPassing clouds.No wind78%30.05 "Hg9 mi
5:55 AM75 °FClear.No wind74%30.04 "Hg10 mi
5:35 AM75 °FPassing clouds.No wind74%30.03 "Hg10 mi
5:15 AM75 °FPassing clouds.No wind74%30.03 "Hg10 mi
4:55 AM75 °FClear.No wind74%30.02 "Hg10 mi
4:35 AM75 °FPassing clouds.5 mph74%30.02 "Hg10 mi
4:15 AM75 °FClear.No wind74%30.01 "Hg10 mi
3:55 AM75 °FClear.No wind74%30.01 "Hg10 mi
3:35 AM75 °FClear.5 mph78%30.01 "Hg10 mi
3:15 AM75 °FClear.No wind74%30.02 "Hg10 mi
2:55 AM75 °FClear.5 mph78%30.02 "Hg10 mi
2:35 AM75 °FClear.3 mph78%30.02 "Hg10 mi
2:15 AM75 °FClear.3 mph74%30.03 "Hg10 mi
1:55 AM75 °FClear.5 mph78%30.04 "Hg10 mi
1:35 AM77 °FClear.3 mph74%30.04 "Hg10 mi
1:15 AM77 °FClear.5 mph74%30.04 "Hg10 mi
12:55 AM75 °FClear.3 mph74%30.05 "Hg10 mi
12:35 AM77 °FClear.5 mph74%30.05 "Hg10 mi
12:15 AM79 °FClear.No wind70%30.06 "Hg10 mi
11:55 PM
Jul 27
79 °FClear.No wind70%30.07 "Hg10 mi
11:35 PM79 °FClear.3 mph70%30.07 "Hg10 mi
11:15 PM79 °FClear.3 mph70%30.07 "Hg10 mi
10:55 PM79 °FClear.6 mph70%30.07 "Hg10 mi
10:35 PM79 °FClear.5 mph70%30.07 "Hg10 mi
10:15 PM81 °FClear.3 mph70%30.07 "Hg10 mi
9:55 PM81 °FClear.No wind70%30.06 "Hg10 mi
9:35 PM81 °FClear.3 mph66%30.05 "Hg10 mi
9:15 PM81 °FSunny.5 mph70%30.05 "Hg10 mi
8:55 PM82 °FSunny.6 mph66%30.05 "Hg10 mi
8:35 PM82 °FSunny.6 mph66%30.05 "Hg10 mi
8:15 PM84 °FSunny.8 mph62%30.05 "Hg10 mi
6:50 PM90 °FPassing clouds.7 mph52%30.04 "Hg10 mi
5:50 PM90 °FScattered clouds.10 mph55%30.04 "Hg10 mi
4:50 PM91 °FScattered clouds.8 mph49%30.04 "Hg10 mi
3:50 PM91 °FScattered clouds.10 mph52%30.05 "Hg10 mi
2:50 PM88 °FScattered clouds.7 mph59%30.07 "Hg10 mi
1:50 PM88 °FScattered clouds.8 mph59%30.08 "Hg10 mi
12:50 PM84 °FPartly sunny.6 mph66%30.09 "Hg10 mi
11:50 AM90 °FScattered clouds.7 mph55%30.10 "Hg10 mi
10:50 AM86 °FScattered clouds.9 mph59%30.10 "Hg10 mi
Weather by CustomWeather, © 2014

See weather overviewHow to use our weather pages